Mobile, AL

1:46 AM CDT on March 27, 2017 (GMT -0500)
Mobile Regional

Weather History for KMOB - May, 2012

Change the Weather History Date:

Tuesday, May 29, 2012

  Actual Average Record
Temperature  
Mean Temperature 83 °F 77 °F  
Max Temperature 95 °F 87 °F 95 °F (2006)
Min Temperature 71 °F 67 °F 56 °F (1984)
Cooling Degree Days 18 12  
Month to date cooling degree days 331 262  
Year to date cooling degree days 674 421  
Growing Degree Days 33 (Base 50)    
Moisture  
Dew Point 68 °F    
Average Humidity 66    
Maximum Humidity 93    
Minimum Humidity 39    
Precipitation  
Precipitation 0.01 in 0.18 in 5.62 in (1883)
Month to date precipitation 7.75 4.78  
Year to date precipitation 26.44 26.48  
Sea Level Pressure  
Sea Level Pressure 29.86 in    
Wind  
Wind Speed 5 mph (WNW)    
Max Wind Speed 14 mph    
Max Gust Speed 20 mph    
Visibility 9 miles    
Events Rain    
T = Trace of Precipitation, MM = Missing Value Source: NWS Daily Summary

Daily Weather History Graph

Daily Weather History Graph

Search for Another Location

Airport or City:

Trip Planner

Search our weather history database for the weather conditions in past years. The results will help you decide how hot, cold, wet, or windy it might be!

Date:

Astronomy

May. 29, 2012 Rise Set
Actual Time 5:51 AM CDT 7:49 PM CDT
Civil Twilight 5:24 AM CDT 8:16 PM CDT
Nautical Twilight 4:51 AM CDT 8:49 PM CDT
Astronomical Twilight 4:16 AM CDT 9:25 PM CDT
Moon 1:43 PM CDT (5/29) 1:18 AM CDT (5/29)
Length of Visible Light 14h 52m
Length of Day
13h 58m
First Quarter, 59% of the Moon is Illuminated
May 29
First Quarter
Jun 4
Full
Jun 11
Last Quarter
Jun 19
New
Jun 26
First Quarter

Hourly Weather History & Observations

Time (CDT) Temp. Heat Index Dew Point Humidity Pressure Visibility Wind Dir Wind Speed Gust Speed Precip Events Conditions
12:56 AM 73.9 °F - 71.1 °F 91% 29.85 in 7.0 mi Calm Calm - N/A   Scattered Clouds
1:56 AM 72.0 °F - 69.1 °F 91% 29.84 in 4.0 mi Calm Calm - N/A   Partly Cloudy
2:56 AM 73.0 °F - 71.1 °F 93% 29.85 in 4.0 mi West 4.6 mph - N/A   Scattered Clouds
3:56 AM 72.0 °F - 70.0 °F 93% 29.85 in 3.0 mi Calm Calm - N/A   Scattered Clouds
4:56 AM 73.0 °F - 69.1 °F 87% 29.86 in 6.0 mi Calm Calm - N/A   Scattered Clouds
5:56 AM 73.0 °F - 66.9 °F 81% 29.88 in 10.0 mi NE 3.5 mph - N/A   Scattered Clouds
6:56 AM 75.9 °F - 66.9 °F 74% 29.88 in 10.0 mi NNE 3.5 mph - N/A   Scattered Clouds
7:56 AM 77.0 °F - 69.1 °F 76% 29.90 in 10.0 mi West 3.5 mph - N/A   Mostly Cloudy
8:56 AM 79.0 °F - 68.0 °F 69% 29.90 in 10.0 mi WSW 3.5 mph - N/A   Mostly Cloudy
9:56 AM 84.0 °F 87.8 °F 69.1 °F 61% 29.90 in 10.0 mi Calm Calm - N/A   Partly Cloudy
10:56 AM 88.0 °F 91.4 °F 68.0 °F 51% 29.90 in 10.0 mi NNW 8.1 mph - N/A   Partly Cloudy
11:56 AM 90.0 °F 92.4 °F 66.0 °F 45% 29.89 in 10.0 mi NW 6.9 mph 17.3 mph N/A   Scattered Clouds
12:56 PM 93.0 °F 95.9 °F 66.0 °F 41% 29.88 in 10.0 mi NW 9.2 mph 16.1 mph N/A   Scattered Clouds
1:56 PM 93.0 °F 97.4 °F 68.0 °F 44% 29.87 in 10.0 mi NW 11.5 mph - N/A   Mostly Cloudy
2:56 PM 93.9 °F 98.6 °F 68.0 °F 43% 29.85 in 8.0 mi NW 8.1 mph 16.1 mph N/A   Mostly Cloudy
3:56 PM 93.9 °F 96.1 °F 64.9 °F 38% 29.83 in 10.0 mi WNW 8.1 mph - N/A   Scattered Clouds
4:56 PM 93.0 °F 96.4 °F 66.9 °F 42% 29.83 in 10.0 mi West 9.2 mph - N/A   Scattered Clouds
5:56 PM 90.0 °F 94.5 °F 69.1 °F 50% 29.82 in 10.0 mi WSW 5.8 mph - N/A   Scattered Clouds
6:56 PM 87.1 °F 92.8 °F 71.1 °F 59% 29.83 in 10.0 mi SW 8.1 mph - N/A   Scattered Clouds
7:56 PM 82.9 °F 87.5 °F 71.1 °F 67% 29.83 in 10.0 mi SSW 5.8 mph - N/A   Scattered Clouds
8:56 PM 80.1 °F 83.8 °F 72.0 °F 76% 29.84 in 7.0 mi SW 6.9 mph - 0.01 in Rain Light Rain
9:56 PM 80.1 °F 82.7 °F 68.0 °F 67% 29.87 in 10.0 mi SW 4.6 mph - 0.00 in   Scattered Clouds
10:56 PM 78.1 °F - 66.9 °F 68% 29.87 in 10.0 mi NNE 3.5 mph - N/A   Scattered Clouds
11:56 PM 79.0 °F - 66.0 °F 64% 29.87 in 10.0 mi WNW 3.5 mph - N/A   Scattered Clouds